Wind_Speed
44 44 44 43 43 43 43 42 42 42 42 41 41 41 41 41 40 39 38 38 38 38 38 38 38 37 37 37 36 36 35 35 34 33 32 31 30 30 30 30 30 28 27 25 24 23 24 24 24 24 24 24 24 24 24 24 23 23 22 22 22 22 21 21 21 20 20 20 20 21 21 21 20 20 20 20 21 21 21 21 21 21 21 21 20 20
44 44 43 43 43 43 42 42 41 41 41 41 41 41 41 41 40 39 39 38 38 38 38 38 38 37 37 37 36 36 35 35 34 33 32 31 30 30 30 30 29 28 25 24 23 23 24 24 24 24 24 24 24 24 24 24 24 23 23 22 22 22 22 22 21 21 21 21 21 21 21 21 21 21 21 21 21 21 21 21 21 21 21 21 20 20
43 43 43 43 42 42 42 42 41 41 41 41 41 41 41 41 41 40 39 39 38 38 38 38 38 37 37 36 36 35 35 34 33 33 32 31 31 31 31 30 29 26 24 23 23 23 24 24 24 24 24 25 25 25 24 24 24 24 23 23 23 22 22 22 22 21 21 21 21 21 22 22 21 21 21 21 21 21 21 21 21 21 21 21 20 20
43 43 43 43 42 42 42 42 41 41 41 41 41 41 41 42 41 41 40 39 39 38 38 38 37 37 36 36 35 35 34 34 33 32 31 31 31 32 31 30 27 25 23 23 23 24 24 24 24 25 25 25 25 25 25 25 24 24 24 23 23 23 23 23 22 22 22 22 22 22 22 22 22 22 21 21 21 21 21 21 21 21 21 21 21 20
44 43 43 43 42 42 42 41 41 41 41 41 41 41 41 42 42 41 40 40 39 39 38 37 37 36 35 34 34 33 33 33 32 32 32 32 32 32 31 28 25 23 23 23 23 24 24 24 25 25 25 25 25 25 25 25 24 24 24 24 24 24 23 23 23 22 22 22 22 22 22 22 22 22 22 21 21 21 21 21 21 21 21 21 21 21
45 44 43 43 42 42 42 41 41 41 41 41 41 41 41 41 41 41 41 40 39 39 38 37 36 35 34 33 32 32 32 31 31 32 32 33 33 32 29 26 24 23 22 23 23 24 24 25 25 25 25 25 25 25 25 25 25 24 24 24 24 24 24 23 23 23 22 22 22 22 22 22 22 22 22 22 21 21 21 21 21 21 21 22 22 21
44 44 43 42 42 42 41 41 41 41 41 41 41 41 41 41 41 41 40 40 39 39 38 37 35 34 33 32 31 31 31 31 31 32 33 33 32 30 27 24 23 22 22 23 24 24 25 25 25 26 26 26 26 26 25 25 25 24 24 24 24 24 24 23 23 23 22 22 22 22 22 22 22 22 22 22 22 22 22 22 22 22 22 22 22 22
43 43 42 42 42 42 42 41 41 41 41 41 41 41 41 40 40 40 40 39 39 38 37 36 35 33 32 32 31 31 30 30 31 32 33 33 31 28 25 23 22 22 23 23 24 24 25 25 26 26 26 26 26 26 25 25 25 24 24 24 24 23 23 23 23 22 22 22 22 22 22 22 22 22 22 22 22 22 22 22 22 22 22 23 23 23
42 42 42 42 41 41 41 41 41 41 41 41 41 41 40 40 40 40 39 39 38 38 37 35 34 33 32 32 32 31 31 31 32 33 33 31 29 26 23 22 22 22 23 24 24 25 25 25 26 26 26 26 26 26 25 25 24 24 24 24 23 23 23 23 23 22 22 22 22 22 22 22 22 23 23 23 23 23 23 23 23 23 23 23 23 23
41 41 42 42 41 41 41 41 41 41 40 41 40 40 40 40 40 39 39 38 38 37 36 35 34 33 33 33 32 32 32 33 33 33 32 29 26 24 23 22 22 23 23 24 24 25 25 26 26 26 26 26 26 26 25 25 24 24 24 23 23 23 23 23 22 22 22 22 22 22 22 22 23 23 23 23 23 23 23 23 23 23 23 23 24 24
41 41 41 41 41 41 41 41 41 41 41 40 40 40 40 39 39 39 38 38 37 36 35 34 33 33 33 33 34 34 34 34 34 33 31 27 25 23 22 22 22 23 24 24 25 25 25 26 26 26 26 26 26 25 25 25 24 24 23 23 23 23 23 23 22 22 22 22 22 22 22 23 23 23 23 23 23 24 24 24 24 24 24 24 24 24
40 40 41 41 41 41 41 41 41 41 40 40 40 40 39 39 38 38 38 37 35 35 34 33 33 33 33 34 35 36 36 35 34 31 28 26 24 22 22 22 23 23 24 24 25 25 26 26 26 26 26 26 26 25 25 24 24 24 24 23 23 23 23 23 23 22 22 22 23 23 23 23 23 23 24 24 24 24 24 24 24 24 24 25 25 25
40 40 40 40 41 41 41 41 41 41 41 40 40 40 39 38 38 37 37 36 35 34 33 33 32 32 33 34 36 36 36 34 32 29 26 24 22 22 22 22 23 23 24 25 25 25 26 26 27 27 26 26 26 25 25 24 24 24 24 23 23 23 23 23 23 23 23 23 23 23 23 23 24 24 24 24 25 25 25 25 25 25 25 25 25 25
40 40 40 40 40 40 40 41 41 41 41 41 40 40 39 38 37 37 36 36 35 34 33 32 32 32 33 35 36 36 34 32 29 27 24 23 22 22 22 23 23 24 24 25 25 26 26 27 27 27 27 26 26 25 25 25 24 24 24 24 24 23 23 23 23 23 23 23 23 23 24 24 24 24 25 25 25 25 26 26 26 26 26 26 26 26
40 40 40 40 40 40 40 40 41 41 41 41 40 39 39 38 37 37 36 35 34 33 32 31 32 32 34 35 35 34 32 29 27 24 23 22 22 22 22 23 23 24 24 25 26 26 27 27 27 27 27 26 26 25 25 25 24 24 24 24 24 24 23 23 23 23 23 24 24 24 24 24 25 25 25 26 26 26 26 26 26 27 27 27 27 27
40 40 40 40 40 40 40 40 41 41 41 41 40 39 39 38 37 37 36 34 33 31 31 32 33 34 34 34 33 31 29 26 24 23 22 21 22 22 23 23 24 24 25 25 26 27 27 27 27 27 27 26 26 26 25 25 25 24 24 24 24 24 24 24 24 24 24 24 24 24 25 25 25 25 26 26 26 27 27 27 27 27 27 27 27 27
40 39 39 40 40 40 40 40 41 41 41 41 40 39 38 37 37 35 34 33 32 31 31 32 34 35 34 32 31 29 26 24 23 22 21 21 22 22 23 23 24 24 25 26 26 27 27 28 27 27 27 26 26 26 25 25 25 25 25 24 24 24 24 24 24 24 24 24 25 25 25 25 26 26 26 27 27 27 27 27 28 28 28 28 28 28
39 39 39 39 39 39 40 40 41 41 42 41 40 39 37 36 35 34 33 32 31 32 33 34 35 34 32 29 27 26 24 22 21 21 21 21 22 22 23 24 24 25 25 26 27 27 28 28 28 27 27 26 26 26 25 25 25 25 25 25 25 24 24 24 24 24 25 25 25 25 26 26 26 27 27 27 27 28 28 28 28 28 28 28 28 28
38 38 38 39 39 39 40 41 41 42 42 40 39 37 35 34 33 32 32 32 32 33 34 35 34 33 30 27 25 24 23 22 21 21 21 21 22 23 23 24 25 25 26 26 27 27 28 28 28 27 27 27 26 26 26 26 25 25 25 25 25 25 25 25 25 25 25 25 26 26 26 27 27 27 28 28 28 28 28 28 28 28 28 28 28 28
38 37 37 38 39 40 41 41 42 41 40 38 37 35 34 34 33 33 33 33 34 34 34 34 32 30 28 26 24 23 22 21 21 21 21 22 23 23 24 25 25 26 26 27 27 27 28 28 27 27 27 27 26 26 26 26 26 26 26 25 25 25 25 25 25 26 26 26 27 27 27 28 28 28 28 29 29 29 29 29 29 29 29 29 29 29
37 37 37 38 39 40 41 41 40 39 37 35 34 34 34 34 34 34 34 34 34 34 34 32 30 28 26 24 23 22 21 21 21 21 22 22 23 24 24 25 26 26 26 27 27 27 27 27 27 27 27 27 27 26 26 26 26 26 26 26 26 26 26 26 26 26 27 27 27 28 28 28 29 29 29 29 29 29 29 29 29 29 29 29 29 29
36 36 37 38 39 40 40 39 38 36 34 33 33 33 33 33 34 34 34 34 33 32 31 29 27 25 24 23 22 21 21 21 21 22 22 23 24 24 25 25 26 26 26 27 27 27 27 27 27 27 27 27 27 27 27 27 26 26 26 26 26 26 26 27 27 27 28 28 28 29 29 29 30 30 30 30 30 30 30 30 30 30 30 30 29 29
35 36 36 37 39 39 38 36 34 33 32 31 32 32 33 33 33 33 33 32 31 29 28 26 25 24 23 22 21 21 21 21 22 22 23 23 24 25 25 26 26 26 26 27 27 27 27 27 27 27 27 27 27 27 27 27 27 27 27 27 27 27 27 27 28 28 28 29 29 30 30 30 30 30 31 31 31 31 30 30 30 30 30 30 30 30
34 35 36 37 37 36 35 33 32 31 31 31 32 33 34 34 34 33 32 30 29 27 25 24 23 22 21 21 21 21 21 22 22 23 23 24 24 25 25 26 26 26 26 27 27 27 27 27 27 27 27 27 27 27 27 27 27 27 27 27 27 28 28 28 29 29 29 30 30 30 31 31 31 31 31 31 31 31 31 31 31 31 31 31 31 31
34 34 35 35 35 34 33 31 31 30 31 32 33 34 34 34 32 31 30 28 26 24 23 22 21 21 21 21 21 21 22 22 23 23 24 24 25 25 25 26 26 26 26 27 27 27 27 27 27 27 28 28 28 28 28 27 28 28 28 28 28 29 29 29 30 30 30 31 31 31 31 32 32 32 32 32 32 32 32 32 32 32 32 32 31 31
33 34 34 33 33 33 32 31 31 31 31 32 32 32 32 30 29 27 26 24 23 22 21 21 21 21 21 21 21 22 22 23 23 24 24 24 25 25 25 26 26 26 27 27 27 27 28 28 28 28 28 28 28 28 28 28 28 28 29 29 29 29 30 30 31 31 31 31 32 32 32 32 32 32 32 32 32 32 32 32 32 32 32 32 32 32
33 33 33 32 32 32 31 31 30 30 30 30 30 29 28 27 26 24 23 22 22 21 21 21 21 21 21 21 22 22 23 23 23 24 24 25 25 25 26 26 26 27 27 27 27 28 28 28 28 28 28 28 28 28 28 29 29 29 30 30 30 30 31 31 32 32 32 32 32 33 33 33 33 33 33 33 33 33 33 33 33 33 33 33 33 33
32 32 32 32 32 31 31 30 29 29 28 28 27 26 26 25 24 23 22 22 22 22 21 21 21 21 21 22 22 23 23 23 24 24 25 25 25 26 26 26 27 27 27 27 28 28 28 28 28 28 28 28 29 29 29 30 30 30 31 31 31 32 32 32 32 33 33 33 33 33 33 33 33 33 33 33 34 34 34 34 34 34 34 34 34 34
33 32 32 31 31 31 30 30 29 28 27 26 26 25 25 24 23 22 22 22 22 21 21 21 21 21 22 22 23 23 23 24 24 25 25 26 26 26 26 26 27 27 27 28 28 28 28 28 28 28 29 29 29 30 30 31 31 31 32 32 32 33 33 33 33 34 34 34 34 34 34 34 34 34 34 34 34 34 34 35 35 35 35 35 35 35
33 32 32 32 31 31 31 30 29 28 27 27 26 25 24 24 23 22 22 22 21 21 21 21 21 22 22 22 23 23 24 24 25 25 26 26 26 26 26 27 27 27 27 28 28 28 28 28 29 29 29 30 30 31 31 31 32 32 32 33 33 33 34 34 34 34 34 35 35 35 35 35 35 35 35 35 35 35 35 36 36 36 36 36 36 36
33 32 32 32 32 31 31 31 30 29 28 27 26 25 24 23 22 22 21 21 21 21 21 21 22 22 22 23 23 24 24 25 25 26 26 26 26 26 26 27 27 27 27 28 28 28 28 29 29 30 30 31 31 31 32 32 33 33 33 34 34 34 34 35 35 35 35 35 36 36 36 36 36 36 36 36 36 36 36 37 37 37 37 37 37 37
33 32 32 32 32 31 31 30 29 28 27 26 25 24 23 22 22 21 21 21 21 21 21 21 22 22 22 23 23 24 24 25 25 26 26 27 26 26 26 27 27 27 27 28 28 29 29 29 29 30 31 31 32 32 32 33 33 34 34 34 35 35 35 36 36 36 36 37 37 37 37 37 37 37 37 37 37 37 38 38 38 38 38 38 38 38
32 32 31 31 31 30 30 29 28 26 25 24 23 23 22 22 21 21 21 21 21 21 21 22 22 22 23 23 24 24 25 25 25 26 26 26 26 26 26 27 27 27 28 28 29 29 30 30 30 31 31 32 32 33 33 33 34 34 35 35 35 36 36 36 37 37 37 38 38 38 38 38 38 38 38 39 39 39 39 39 39 39 39 39 39 39
29 29 29 29 28 28 27 26 25 24 23 23 22 22 21 21 21 21 21 21 21 21 22 22 22 23 23 23 24 24 24 25 25 25 26 26 27 27 27 27 28 28 28 29 29 30 30 31 31 31 32 32 33 33 34 34 35 35 35 36 36 37 37 37 38 38 38 39 39 39 39 39 39 40 40 40 40 40 40 40 40 40 40 40 40 40
27 27 26 26 25 25 24 23 23 22 22 22 21 21 21 21 21 21 21 21 21 22 22 22 23 23 23 23 24 24 24 25 25 26 26 27 27 28 28 28 28 29 29 30 30 30 31 31 32 32 33 33 33 34 34 35 35 36 36 37 37 37 38 38 39 39 39 40 40 40 40 40 41 41 41 41 41 41 41 41 41 41 41 41 41 41
25 24 24 23 23 23 22 22 22 21 21 21 21 21 21 21 21 21 21 21 21 22 22 22 22 22 23 23 23 24 24 25 25 26 27 27 28 28 29 29 29 29 30 30 31 31 32 32 33 33 34 34 35 35 35 36 36 37 37 38 38 39 39 39 40 40 40 41 41 41 41 42 42 42 42 42 43 43 43 42 42 42 42 42 42 42
23 23 22 22 22 21 21 21 21 21 21 20 20 20 20 20 20 21 21 21 21 21 22 22 22 22 22 23 23 24 25 25 26 27 27 28 28 29 29 29 30 30 31 31 32 32 33 33 34 34 35 35 36 36 37 37 37 38 38 39 39 40 40 40 41 41 41 42 42 42 42 43 43 43 43 43 43 43 44 43 43 43 43 43 43 43
21 21 21 21 21 20 20 20 20 20 20 20 20 20 20 20 20 20 20 21 21 21 21 22 22 23 23 24 24 25 26 26 27 27 28 28 29 29 30 30 30 31 31 32 33 33 34 35 35 36 36 37 37 38 38 38 39 39 40 40 40 41 41 41 42 42 42 43 43 43 43 43 44 44 44 44 44 44 44 44 44 44 44 43 43 43
20 20 20 20 20 20 19 19 19 19 19 19 19 19 19 20 20 20 20 21 21 22 22 22 23 23 24 24 25 25 26 27 27 28 28 29 29 30 30 31 31 32 33 33 34 35 36 36 37 37 38 38 39 39 40 40 40 41 41 41 42 42 42 42 43 43 43 43 44 44 44 44 44 44 45 45 45 44 44 44 44 44 44 43 43 43
19 19 19 19 18 18 18 18 18 18 18 19 19 19 20 20 20 21 21 21 22 22 23 23 24 24 25 25 25 26 26 27 28 28 29 29 30 31 31 32 33 33 34 35 36 37 37 38 38 39 40 40 41 41 42 42 42 42 42 42 42 42 43 43 43 43 44 44 44 44 45 45 45 45 45 45 45 45 44 44 44 44 43 43 43 43
18 18 18 18 17 17 17 17 18 18 19 19 19 20 20 21 21 21 22 22 23 23 24 24 24 25 25 26 26 26 27 28 28 29 29 30 31 32 32 33 34 35 36 37 37 38 39 39 40 41 41 41 42 42 43 43 43 44 43 43 43 43 43 43 43 43 44 44 44 44 45 45 45 45 45 45 45 44 44 44 43 43 43 42 42 42
17 17 17 17 17 17 18 18 18 19 19 20 20 21 21 22 22 22 23 23 23 24 24 24 25 25 26 26 26 27 28 28 29 30 30 31 32 33 34 35 36 37 38 38 39 40 40 41 41 42 42 42 42 43 43 44 44 44 44 43 43 43 43 42 42 42 43 43 44 44 44 44 44 44 44 44 44 44 43 43 43 42 42 42 41 41
17 17 17 18 18 18 19 19 19 20 20 21 21 22 22 22 23 23 23 23 24 24 24 25 25 26 26 26 27 28 28 29 30 31 32 33 34 35 36 37 37 38 39 40 40 41 41 41 41 42 42 42 42 42 42 43 43 43 43 43 42 42 41 41 41 41 41 42 42 42 43 43 43 43 43 43 43 43 42 42 41 41 41 41 41 41
18 18 18 18 19 19 19 20 20 21 21 22 22 22 23 23 23 23 24 24 24 24 25 25 26 26 27 27 28 28 29 30 31 32 33 34 35 36 37 38 38 39 40 40 40 40 40 40 41 40 40 40 40 41 41 41 41 41 41 41 41 40 40 40 40 40 40 40 40 41 41 41 41 42 42 41 41 41 40 40 40 40 40 40 40 40
18 18 19 19 20 20 20 21 21 22 22 23 23 23 23 23 23 24 24 24 24 25 25 26 27 27 28 28 29 30 31 32 33 34 35 36 36 37 37 38 38 38 39 39 39 39 39 38 38 39 39 39 39 39 39 39 40 40 40 40 39 39 39 39 39 39 39 39 39 39 39 39 40 40 40 39 39 39 39 38 38 39 39 39 40 40
19 19 20 20 20 21 21 22 22 22 23 23 23 23 23 23 24 24 24 24 25 25 26 27 28 28 29 29 30 31 32 33 34 35 35 36 37 37 37 37 37 37 37 37 37 37 37 37 37 37 37 37 38 38 38 39 39 39 39 39 39 39 39 39 38 38 38 38 38 38 38 38 38 38 38 38 38 38 38 38 38 38 39 39 40 40
20 20 21 21 21 22 22 22 22 23 23 22 23 23 23 23 24 24 25 25 26 26 27 28 29 29 30 31 31 32 33 33 34 35 35 36 36 36 36 36 36 36 35 35 35 35 35 36 36 36 37 37 37 38 38 39 39 39 39 39 39 39 39 39 39 39 39 39 39 39 38 38 38 38 38 38 38 38 38 38 38 39 39 40 40 40
21 22 22 22 22 23 23 22 22 22 22 22 22 23 23 24 24 25 25 26 27 27 28 29 29 30 31 32 32 33 33 33 34 34 34 34 34 34 34 34 34 34 34 34 35 35 35 36 36 37 37 37 38 38 39 39 40 40 40 40 40 40 40 40 40 40 40 40 40 40 39 39 39 39 39 39 39 39 39 39 39 39 40 40 40 40
22 23 23 23 23 23 22 22 22 22 22 22 23 23 24 24 25 26 26 27 28 29 29 30 30 31 31 32 32 33 33 33 33 33 33 33 33 33 33 33 33 33 33 34 34 35 35 36 36 37 37 38 38 38 39 39 39 40 40 40 41 41 41 41 41 41 41 41 41 41 41 40 40 40 40 40 40 40 40 40 40 40 40 40 39 39
23 23 23 23 23 22 22 22 22 22 23 23 23 24 24 25 26 27 27 28 29 29 30 30 30 31 31 31 31 31 31 31 31 31 31 31 31 31 31 31 32 32 32 33 33 34 35 35 36 36 37 37 37 38 38 38 38 39 39 39 39 40 40 40 40 40 41 41 41 41 41 41 41 41 40 40 40 40 40 40 39 39 39 38 38 38
23 23 23 23 22 22 22 23 23 23 24 24 24 25 25 26 27 28 28 29 29 29 30 30 30 30 30 30 30 30 30 30 30 30 29 29 30 30 30 30 31 31 32 32 33 33 34 34 35 36 36 36 36 36 37 37 37 37 37 37 38 38 38 38 38 39 39 39 40 40 40 40 40 40 40 40 40 39 39 38 38 37 37 37 37 37
Wind_Direction
288 289 290 290 290 291 291 291 291 292 292 292 291 291 291 291 291 291 291 291 291 290 290 290 290 290 290 289 289 288 286 284 282 280 277 276 274 273 271 269 268 269 269 270 270 271 271 272 273 273 274 274 275 275 275 276 276 277 278 278 279 279 280 280 281 281 281 281 282 282 282 283 284 284 285 286 287 288 290 291 292 294 295 297 299 301
288 289 289 290 290 290 290 291 291 291 291 291 291 291 290 290 290 290 290 290 290 290 290 290 289 289 289 288 287 286 285 282 280 277 275 273 272 270 269 268 267 267 268 268 268 269 270 271 272 273 274 274 275 275 275 276 277 277 278 279 279 279 280 280 280 280 280 280 281 281 282 282 283 283 284 285 286 287 288 290 291 292 294 295 297 299
287 287 288 288 288 289 289 290 290 290 290 290 290 290 290 290 290 290 290 290 290 289 289 289 289 288 288 287 286 285 283 280 278 275 273 272 270 268 267 266 266 266 266 266 267 268 269 271 272 273 274 275 275 275 276 276 276 277 277 278 278 278 279 279 279 279 279 279 280 280 280 281 282 282 283 284 285 286 287 288 290 291 292 293 295 296
286 286 287 287 287 288 288 289 289 289 289 289 289 289 290 290 290 290 290 290 289 289 288 288 288 288 287 286 285 283 281 279 277 274 272 270 268 267 265 265 264 264 264 265 266 268 269 271 272 273 274 275 275 275 276 276 276 276 276 277 277 277 277 277 277 278 278 278 279 279 280 280 281 282 283 284 285 286 287 288 288 289 290 291 293 294
287 286 286 286 287 287 287 288 288 288 288 288 288 288 289 289 290 290 290 289 289 288 288 287 287 286 285 285 284 282 281 279 276 274 272 270 268 266 264 263 262 262 263 264 266 267 269 271 272 273 274 275 275 275 275 275 275 275 275 275 275 275 275 276 276 276 277 277 278 278 279 280 281 282 283 284 285 286 287 287 288 288 289 290 291 292
287 286 286 286 286 286 287 287 287 287 287 287 287 287 288 288 289 289 289 289 288 288 287 286 285 284 283 283 282 281 280 279 277 275 273 270 267 265 262 261 260 260 262 263 265 267 269 271 272 274 274 275 275 275 275 275 274 274 274 274 274 274 274 275 275 276 276 277 278 278 279 280 282 283 284 285 286 286 287 287 288 288 288 289 290 290
286 285 285 285 285 286 286 286 286 287 286 286 286 287 287 288 288 288 288 288 288 287 286 285 283 282 281 280 280 280 279 278 277 276 274 271 267 263 260 258 257 259 261 263 265 267 269 271 272 274 275 275 276 276 275 275 274 274 274 274 274 274 274 275 275 276 276 277 278 279 280 281 282 283 284 285 286 286 287 287 287 288 288 288 288 289
284 284 284 284 284 285 285 285 285 286 286 286 286 287 287 287 287 287 287 287 286 285 284 282 281 279 278 278 278 278 277 277 276 275 273 270 265 261 257 255 256 258 260 262 264 267 269 271 273 274 275 276 276 276 276 275 275 274 274 274 274 274 275 275 275 276 277 277 278 279 280 281 282 283 284 285 286 286 286 287 287 287 287 287 287 288
283 283 283 283 283 284 284 284 285 285 285 286 286 287 287 287 287 286 286 285 285 284 282 280 279 278 277 276 276 276 276 276 275 274 271 267 262 257 254 254 256 258 260 262 264 266 269 271 273 274 276 276 276 276 276 276 275 275 275 275 274 274 275 275 276 276 277 278 278 279 280 281 282 283 284 284 285 285 285 286 286 286 286 286 286 287
282 282 282 282 283 283 283 284 284 285 285 286 286 287 287 287 286 286 285 284 283 282 281 280 279 278 278 277 277 276 276 275 274 272 268 263 258 254 253 254 256 259 260 262 265 267 269 271 273 275 276 276 276 276 276 275 275 274 274 274 274 274 274 275 275 276 277 278 278 279 280 281 281 282 283 283 284 284 285 285 285 285 285 285 285 285
281 281 281 282 282 282 282 283 284 284 285 285 286 286 286 285 285 285 284 283 282 281 280 280 280 280 280 279 279 278 276 274 271 268 264 259 255 252 253 255 257 259 261 263 266 268 270 272 274 275 276 276 276 275 275 274 274 274 274 273 274 274 274 274 275 276 276 277 278 279 279 280 281 281 282 283 283 283 284 284 284 284 284 284 284 284
281 281 281 281 281 282 282 283 283 284 284 285 285 285 284 284 284 283 282 281 280 279 279 279 280 281 281 281 279 277 274 271 268 264 259 254 252 251 253 256 258 260 262 264 267 269 271 273 274 275 275 276 275 275 274 274 273 273 273 273 273 273 273 274 274 275 276 277 277 278 279 280 280 281 281 282 282 283 283 283 283 283 283 283 283 283
280 280 280 280 281 281 282 282 283 283 284 284 284 284 284 283 282 281 280 279 278 278 278 279 279 280 281 280 278 275 271 267 263 258 253 250 250 251 254 257 259 261 263 266 268 270 272 273 274 275 275 275 274 274 273 273 273 272 272 272 272 272 273 273 274 275 276 276 277 278 279 279 280 281 281 282 282 283 283 283 283 283 283 283 282 283
280 280 280 280 280 281 281 282 282 283 283 283 283 283 282 282 280 279 277 277 277 277 278 278 278 279 279 278 275 272 267 263 258 253 249 248 249 252 255 258 260 262 264 267 269 270 272 273 274 274 274 274 274 273 273 272 272 272 272 272 272 272 273 273 274 275 276 276 277 278 279 280 281 281 282 282 283 283 283 283 283 283 283 283 282 282
279 279 279 280 280 280 281 281 282 282 282 282 282 282 281 280 278 277 275 275 276 277 277 278 278 278 278 276 273 268 263 257 252 248 247 248 250 253 256 259 261 263 265 267 269 271 272 273 274 274 274 273 273 273 272 272 272 272 272 272 272 272 273 273 274 275 276 277 278 279 279 280 281 281 282 283 283 283 283 283 283 283 283 283 283 283
279 279 279 279 280 280 280 281 281 282 282 281 281 280 279 277 276 275 275 275 276 277 277 278 278 278 276 273 269 264 257 251 247 246 247 249 252 255 257 260 262 264 266 268 270 271 272 273 273 273 273 273 272 272 272 272 272 271 271 271 272 272 273 273 274 275 276 277 278 279 280 280 281 282 282 283 283 283 284 284 284 284 284 283 283 283
279 279 279 279 279 280 280 280 281 281 281 281 280 278 277 275 274 274 275 276 277 278 278 278 278 276 273 269 264 258 252 248 246 246 248 251 254 256 258 261 263 265 267 268 270 271 272 272 273 272 272 272 272 272 272 272 271 271 271 271 272 272 273 274 275 276 276 277 278 279 280 281 281 282 282 283 283 283 283 284 284 284 284 284 283 283
278 279 279 279 279 280 280 280 281 281 280 279 278 276 275 274 274 275 276 277 278 278 278 277 276 273 268 262 257 253 249 246 246 249 251 253 255 257 259 262 264 266 267 269 270 271 272 272 272 272 272 272 272 272 272 271 271 271 271 272 272 273 274 274 275 276 277 278 279 279 280 281 281 282 282 283 283 283 283 283 283 283 283 283 283 283
278 278 279 279 279 280 280 280 281 280 280 278 277 276 275 274 275 275 276 277 277 277 275 273 271 267 262 256 251 249 247 247 248 251 253 255 257 259 261 263 265 266 268 269 270 271 271 272 272 272 272 272 272 272 272 271 271 271 271 272 273 273 274 275 276 276 277 278 279 279 280 281 281 282 282 282 282 283 283 283 283 283 283 283 283 283
278 278 278 279 279 280 280 280 280 280 279 278 277 276 275 275 275 275 275 275 274 273 270 267 264 260 255 251 248 246 246 248 250 252 254 256 258 260 262 264 266 267 268 269 270 271 271 271 271 272 272 272 272 272 271 271 271 271 272 273 273 274 275 275 276 277 277 278 279 279 280 280 281 281 282 282 282 282 282 282 282 282 282 282 282 282
278 278 278 279 280 280 280 280 280 280 279 277 276 276 275 275 274 274 273 271 269 267 264 260 256 253 250 246 245 245 247 249 252 254 256 258 259 261 263 265 267 268 269 269 270 270 271 271 271 272 272 272 272 271 271 271 271 272 272 273 274 275 275 276 277 277 278 278 279 279 280 281 281 281 282 282 282 282 282 282 282 282 282 282 281 281
278 279 279 280 281 281 281 281 280 279 277 275 275 274 274 273 272 270 268 265 262 259 256 253 250 247 245 245 245 246 249 252 254 256 257 259 261 263 265 266 267 268 269 270 270 270 271 271 271 271 272 271 271 271 271 271 272 272 273 274 275 275 276 276 277 277 278 278 279 280 280 281 281 281 282 282 282 282 282 282 282 281 281 281 281 281
278 279 280 281 282 283 282 281 278 276 274 273 273 272 272 271 268 265 262 259 256 253 250 247 245 244 244 245 246 249 252 254 256 258 259 261 263 264 266 267 268 269 269 270 270 271 271 271 271 271 271 271 271 271 271 272 272 273 274 275 275 276 277 277 277 278 279 279 280 280 281 281 281 282 282 282 282 282 282 281 281 281 281 281 280 280
278 279 280 282 284 284 283 280 276 273 272 271 271 270 269 267 264 260 256 253 250 247 245 243 243 244 246 248 250 252 254 256 258 260 261 263 264 265 266 267 268 269 270 270 270 271 271 271 271 271 271 271 271 271 272 272 273 274 275 275 276 277 277 278 278 279 279 280 280 281 281 281 282 282 282 282 282 282 281 281 281 281 280 280 280 280
278 279 281 283 285 285 283 279 274 271 269 268 268 267 265 262 258 254 251 248 246 244 244 244 245 247 249 251 253 255 257 258 260 261 263 264 265 266 267 268 268 269 270 270 270 270 270 270 270 270 270 271 271 272 272 273 274 275 276 276 277 278 278 278 279 279 280 280 281 281 281 282 282 282 282 282 281 281 281 281 281 280 280 280 279 279
280 280 282 284 285 285 282 277 273 269 267 266 264 262 259 255 252 249 247 246 245 246 246 248 249 251 252 254 255 257 258 260 261 263 264 265 265 266 267 268 268 269 269 270 270 270 270 270 270 270 270 271 272 273 274 275 275 276 277 277 278 278 279 279 279 280 280 281 281 281 281 281 282 282 282 281 281 281 281 280 280 280 280 279 279 279
280 281 282 284 284 284 280 276 271 267 265 262 260 257 255 252 249 248 247 247 248 249 250 250 252 253 255 256 258 259 260 262 263 264 265 265 266 267 267 268 268 269 269 269 269 270 270 270 270 271 271 272 273 274 275 276 277 277 278 278 279 279 279 279 280 280 280 281 281 281 281 281 281 281 281 281 281 280 280 280 280 279 279 279 279 278
279 279 280 281 282 281 279 275 270 266 263 260 258 255 252 250 249 248 248 249 250 251 252 253 254 256 257 259 260 261 262 263 264 265 266 267 267 268 268 269 269 269 269 269 270 270 270 271 272 272 273 274 275 276 277 277 278 278 279 279 279 280 280 280 280 280 281 281 281 281 281 281 281 281 281 280 280 280 280 279 279 279 278 278 278 278
278 277 277 278 278 278 276 273 270 266 262 259 256 254 251 250 249 249 250 251 252 253 254 255 257 258 260 261 263 264 265 266 266 267 268 268 268 269 269 269 270 270 270 270 270 271 271 272 273 274 275 276 277 277 278 279 279 279 280 280 280 280 281 281 281 281 281 281 281 281 281 281 281 281 280 280 280 279 279 279 279 278 278 278 278 277
276 275 275 275 275 274 273 271 267 264 261 258 255 253 252 251 251 252 252 253 254 255 257 258 260 261 263 264 265 266 267 267 268 269 269 270 270 270 270 270 270 271 271 271 271 272 273 274 275 276 277 278 278 279 279 280 280 281 281 281 281 281 281 281 281 281 281 281 281 281 281 281 280 280 280 280 280 279 279 279 279 278 278 278 277 277
274 273 273 272 272 271 269 267 264 262 259 257 255 254 254 254 254 255 256 257 258 259 260 262 263 264 266 267 268 268 269 269 270 270 270 271 271 271 271 271 271 272 272 272 273 273 274 275 277 278 279 279 280 280 281 281 281 282 282 282 282 282 282 282 282 281 281 281 281 281 281 281 280 280 280 280 280 279 279 279 279 278 278 278 277 277
272 271 270 269 268 267 265 263 261 260 258 257 257 257 257 258 259 259 260 261 262 263 264 265 266 267 268 268 269 270 270 270 270 271 271 272 272 272 272 272 272 273 273 274 275 275 276 277 278 279 280 281 281 282 282 283 283 283 283 283 283 283 282 282 282 282 282 281 281 281 281 281 281 280 280 280 280 279 279 279 278 278 278 277 277 277
269 268 267 266 265 263 262 261 260 260 260 259 260 260 261 262 263 264 264 265 266 266 267 267 268 268 269 269 270 270 270 271 271 272 272 273 273 273 273 273 274 274 275 276 277 278 279 279 280 281 282 282 283 283 284 284 284 284 284 283 283 283 283 283 282 282 282 282 282 282 281 281 281 281 280 280 279 279 279 279 278 278 278 277 277 276
266 265 264 263 263 262 261 261 261 261 262 262 263 263 264 265 266 266 267 268 268 269 269 269 269 269 269 270 270 271 271 272 273 273 273 274 274 275 275 276 276 277 278 279 280 281 281 282 283 283 284 284 284 285 285 285 285 284 284 284 284 284 283 283 283 283 283 283 282 282 282 282 281 281 280 280 280 279 279 279 278 278 277 277 277 276
266 266 265 264 264 263 263 263 263 264 264 264 265 265 266 267 267 268 269 269 269 270 270 270 270 271 271 271 271 272 272 273 274 274 275 275 276 277 278 279 280 281 282 282 283 283 284 284 285 285 285 285 285 285 285 285 285 285 284 284 284 284 284 284 284 283 283 283 283 283 282 282 282 281 281 280 280 279 279 279 278 278 277 277 277 276
268 267 267 266 265 265 265 265 265 265 265 265 266 266 267 268 269 269 270 270 270 271 271 271 272 272 272 272 273 273 273 274 275 276 277 278 279 280 281 282 283 284 284 285 285 285 285 285 285 286 286 286 286 286 285 285 285 285 285 285 285 284 284 284 284 284 283 283 283 283 282 282 282 281 281 280 280 280 279 279 278 278 277 277 277 276
269 268 267 267 266 266 265 265 265 266 266 266 267 268 268 269 269 269 270 270 270 270 271 271 272 272 273 273 273 274 275 276 277 278 280 281 282 283 284 284 285 285 285 285 285 285 285 286 286 286 286 286 286 286 286 285 285 285 285 285 285 285 285 284 284 284 283 283 283 283 282 282 281 281 281 280 280 279 279 279 278 278 277 277 276 276
269 268 267 266 266 266 266 266 267 267 268 268 268 268 268 268 268 268 268 268 269 269 270 271 271 272 273 274 275 276 278 279 280 281 282 283 284 285 285 285 285 286 286 286 286 286 286 286 286 286 286 286 286 286 286 286 285 285 285 285 285 285 285 285 284 284 283 283 283 282 282 281 281 281 280 280 279 279 279 279 278 278 277 277 276 275
268 267 267 267 267 267 267 267 268 268 268 267 267 266 266 265 265 265 266 267 267 268 269 271 272 273 274 276 277 279 280 281 282 283 284 284 285 285 286 286 286 286 286 286 286 287 287 287 287 287 287 286 286 286 286 285 285 285 285 285 285 285 285 285 284 284 283 283 282 282 281 281 281 280 280 279 279 279 278 278 278 277 276 276 275 275
268 267 267 267 267 267 267 267 266 265 264 264 264 264 264 264 265 266 266 267 269 270 271 273 274 275 277 278 280 281 282 282 283 284 285 285 286 286 287 287 287 287 287 287 287 287 287 287 287 287 287 287 287 286 286 286 285 285 285 285 285 285 285 285 284 284 283 283 282 282 281 281 280 280 279 279 279 278 278 277 277 276 275 275 274 274
267 267 266 265 265 264 263 262 262 261 261 262 262 263 264 265 266 267 269 270 272 273 275 276 277 278 279 281 281 282 283 284 284 285 285 286 287 287 287 287 287 287 287 287 287 287 287 287 288 288 288 288 287 287 287 286 286 286 286 285 285 285 285 285 284 284 283 283 282 282 281 281 280 280 279 279 278 278 277 277 276 275 275 274 273 273
265 264 263 262 261 260 260 260 260 260 261 262 263 264 265 267 269 270 272 274 275 277 278 279 280 280 281 282 283 284 285 285 286 286 287 287 287 287 287 288 288 288 288 288 288 288 288 288 288 289 289 288 288 288 287 287 287 287 286 286 286 285 285 284 284 284 283 283 282 282 281 281 280 279 279 278 278 277 277 276 275 275 274 273 273 272
260 259 259 258 258 258 259 260 260 261 262 263 264 266 268 270 272 274 275 277 278 278 279 279 280 281 282 283 284 285 286 287 287 288 288 288 288 288 288 289 289 289 289 289 289 289 289 289 290 290 290 289 289 289 288 288 288 287 287 287 287 286 285 285 284 284 283 283 283 282 282 281 280 280 279 278 278 277 276 276 275 275 274 273 273 272
257 257 258 258 259 259 260 261 262 263 264 266 267 269 271 273 275 276 276 277 278 278 279 280 281 282 284 285 286 286 287 287 288 289 289 289 290 290 290 290 290 291 291 291 291 291 291 291 291 291 291 291 290 290 290 289 289 289 289 288 288 287 287 286 286 285 284 284 283 283 282 281 281 280 279 278 278 277 276 276 275 275 274 274 273 272
257 258 259 259 260 261 262 263 264 266 268 269 271 273 274 275 276 276 276 277 278 279 280 281 282 283 285 286 287 287 288 289 289 290 290 291 291 291 292 292 292 292 292 292 292 292 292 292 292 292 292 292 291 291 291 291 291 291 290 290 290 289 288 288 287 287 286 285 284 284 283 282 281 280 279 279 278 277 276 276 275 275 275 274 273 272
259 260 261 262 263 264 265 266 268 269 271 272 273 274 275 275 276 276 277 278 279 280 281 283 284 285 287 288 289 289 290 291 291 292 292 292 292 292 292 293 293 293 293 293 294 294 294 294 294 293 293 293 292 292 292 292 292 292 292 292 291 290 290 289 289 288 287 286 285 284 284 283 282 281 279 279 278 277 276 276 275 275 275 274 274 273
262 263 264 265 266 267 268 270 271 272 273 273 274 275 275 276 277 278 279 280 281 283 284 285 287 288 289 290 291 292 292 292 293 293 293 293 293 293 293 293 294 294 294 295 295 295 295 295 294 294 294 293 293 293 292 292 292 292 292 292 291 291 290 289 289 288 288 286 285 285 284 283 282 281 280 279 278 277 276 276 275 275 275 275 274 273
265 265 266 267 268 269 271 272 272 273 274 274 275 275 276 277 279 280 281 283 284 285 287 288 289 290 291 292 292 293 293 293 293 293 293 294 294 294 294 295 295 295 296 296 296 296 295 295 295 294 294 294 293 293 293 293 293 292 292 291 291 290 289 289 288 288 287 286 285 284 283 282 281 280 280 279 278 277 277 276 276 275 275 274 274 273
266 267 268 269 270 271 272 272 273 273 274 274 275 276 278 279 281 282 284 285 286 287 288 290 291 291 292 293 293 293 293 293 294 294 294 294 295 295 295 296 296 296 297 297 296 296 296 296 295 295 295 295 295 295 294 294 293 293 292 291 290 290 289 288 288 287 286 285 284 283 283 282 281 280 280 279 278 277 277 276 275 275 274 274 274 273
267 268 268 269 270 271 272 272 273 274 275 276 277 278 280 281 283 284 285 287 287 288 289 290 291 292 292 293 293 293 294 294 294 294 295 295 295 296 296 296 297 297 297 297 297 297 297 297 296 296 296 296 297 297 297 296 296 295 294 293 292 291 290 289 289 287 286 285 284 284 283 282 281 280 279 279 278 277 277 276 275 275 275 274 274 274
268 268 269 270 271 271 272 273 274 275 276 278 279 281 282 284 285 285 286 287 288 289 290 291 291 292 293 293 293 294 294 294 294 295 295 295 296 296 296 297 297 298 298 298 299 299 299 299 299 299 299 299 299 299 299 299 299 298 297 296 295 294 293 292 291 290 289 288 286 285 284 283 282 281 280 279 278 277 277 277 276 276 276 276 276 276
Height
5698 5697 5696 5695 5695 5694 5693 5692 5692 5691 5690 5690 5689 5689 5688 5688 5688 5687 5687 5687 5686 5685 5685 5684 5684 5684 5684 5683 5683 5683 5683 5683 5683 5682 5682 5682 5682 5682 5682 5682 5682 5682 5682 5682 5682 5683 5683 5683 5683 5683 5683 5683 5683 5683 5683 5683 5683 5683 5683 5682 5682 5682 5682 5682 5682 5682 5682 5682 5682 5682 5682 5682 5682 5682 5682 5681 5681 5681 5680 5680 5679 5679 5679 5678 5678 5678
5695 5694 5693 5692 5692 5691 5689 5689 5689 5688 5688 5687 5686 5686 5686 5685 5684 5684 5684 5684 5683 5683 5682 5682 5681 5681 5681 5681 5680 5680 5680 5680 5680 5679 5679 5679 5679 5679 5679 5679 5679 5679 5680 5680 5680 5680 5681 5681 5681 5681 5681 5681 5681 5681 5681 5681 5681 5680 5680 5680 5680 5680 5680 5680 5680 5680 5680 5680 5680 5680 5680 5680 5680 5680 5680 5679 5679 5679 5678 5678 5678 5678 5677 5677 5677 5676
5692 5691 5690 5689 5689 5688 5687 5686 5686 5685 5685 5684 5683 5683 5682 5682 5681 5681 5681 5681 5680 5680 5679 5679 5679 5678 5678 5678 5678 5678 5677 5677 5677 5677 5677 5677 5677 5677 5677 5677 5677 5677 5677 5678 5678 5678 5678 5679 5679 5679 5679 5679 5679 5679 5679 5679 5679 5678 5678 5678 5678 5678 5678 5678 5678 5678 5678 5678 5678 5678 5678 5678 5678 5678 5678 5678 5678 5677 5677 5677 5676 5676 5676 5675 5675 5675
5689 5688 5687 5686 5685 5685 5684 5683 5683 5682 5682 5681 5681 5680 5680 5679 5678 5678 5678 5677 5677 5677 5677 5677 5676 5676 5675 5675 5675 5675 5674 5674 5674 5674 5674 5674 5674 5674 5674 5674 5674 5674 5675 5675 5676 5676 5676 5677 5677 5677 5677 5677 5677 5677 5677 5677 5677 5677 5677 5677 5677 5677 5677 5677 5677 5677 5677 5677 5677 5677 5676 5676 5676 5676 5676 5676 5676 5675 5675 5675 5674 5674 5674 5674 5673 5673
5685 5684 5683 5683 5682 5682 5681 5680 5680 5679 5678 5678 5678 5678 5677 5676 5675 5675 5674 5674 5674 5674 5673 5673 5673 5673 5673 5672 5672 5672 5672 5672 5672 5672 5672 5672 5672 5672 5672 5672 5672 5672 5673 5673 5673 5674 5674 5674 5675 5675 5675 5675 5675 5675 5675 5675 5675 5675 5675 5675 5675 5675 5675 5675 5675 5675 5675 5675 5675 5674 5674 5674 5674 5674 5674 5674 5673 5673 5673 5673 5673 5673 5672 5672 5672 5672
5681 5681 5680 5679 5678 5678 5678 5677 5677 5676 5675 5675 5674 5674 5674 5673 5672 5672 5671 5671 5671 5671 5671 5671 5670 5670 5670 5670 5669 5669 5669 5669 5669 5669 5669 5669 5669 5669 5669 5669 5670 5670 5671 5671 5671 5672 5672 5672 5673 5673 5673 5673 5673 5673 5673 5673 5673 5673 5673 5673 5673 5673 5673 5673 5673 5673 5673 5673 5673 5673 5672 5672 5672 5672 5672 5672 5671 5671 5671 5671 5671 5671 5670 5670 5670 5670
5677 5677 5676 5676 5675 5674 5674 5674 5673 5673 5672 5672 5671 5671 5671 5670 5669 5669 5668 5668 5668 5668 5668 5668 5668 5668 5667 5667 5667 5667 5667 5667 5667 5667 5667 5667 5667 5667 5667 5667 5668 5668 5668 5669 5669 5670 5670 5670 5670 5670 5671 5671 5671 5671 5671 5671 5671 5671 5671 5671 5671 5671 5671 5671 5671 5671 5671 5671 5670 5670 5670 5670 5670 5670 5669 5669 5669 5669 5669 5669 5669 5668 5668 5668 5668 5668
5673 5673 5673 5673 5672 5671 5671 5671 5670 5670 5669 5668 5668 5668 5668 5667 5666 5666 5666 5665 5665 5665 5665 5664 5664 5664 5664 5664 5664 5664 5664 5664 5664 5664 5664 5664 5664 5664 5664 5665 5665 5666 5667 5667 5667 5668 5668 5668 5668 5668 5668 5668 5668 5668 5668 5668 5668 5668 5668 5668 5668 5668 5668 5668 5668 5668 5668 5668 5668 5668 5668 5668 5668 5668 5667 5667 5667 5667 5667 5667 5667 5667 5667 5666 5666 5666
5670 5669 5669 5669 5669 5668 5668 5667 5667 5667 5666 5666 5665 5665 5665 5664 5663 5663 5663 5663 5662 5662 5662 5662 5661 5662 5662 5662 5661 5661 5661 5662 5662 5662 5662 5662 5662 5662 5662 5663 5663 5664 5664 5665 5665 5665 5666 5666 5666 5666 5666 5666 5666 5666 5666 5666 5666 5666 5666 5666 5666 5666 5666 5666 5666 5666 5666 5666 5666 5666 5666 5666 5665 5665 5665 5665 5665 5665 5665 5665 5665 5665 5664 5664 5664 5664
5666 5666 5666 5665 5665 5665 5665 5664 5663 5663 5663 5663 5662 5662 5662 5661 5661 5660 5660 5660 5659 5659 5659 5659 5658 5659 5659 5659 5659 5659 5659 5659 5659 5659 5659 5659 5659 5659 5660 5660 5661 5662 5662 5663 5663 5663 5663 5664 5664 5664 5664 5664 5664 5664 5664 5664 5663 5663 5663 5664 5664 5664 5664 5664 5664 5664 5664 5663 5663 5663 5663 5663 5663 5663 5663 5663 5663 5663 5663 5663 5663 5663 5663 5663 5662 5662
5663 5663 5663 5662 5662 5662 5662 5661 5660 5660 5660 5659 5659 5658 5658 5658 5658 5657 5657 5657 5657 5656 5656 5656 5656 5656 5656 5656 5656 5656 5656 5656 5656 5656 5656 5657 5657 5657 5658 5658 5659 5659 5660 5660 5661 5661 5661 5661 5662 5662 5662 5662 5662 5662 5661 5661 5661 5661 5661 5661 5662 5662 5662 5662 5662 5662 5661 5661 5661 5661 5661 5661 5661 5661 5661 5661 5661 5661 5661 5661 5661 5661 5660 5660 5660 5660
5659 5659 5659 5659 5658 5658 5658 5658 5657 5657 5657 5656 5656 5655 5655 5655 5655 5654 5653 5653 5653 5653 5653 5653 5653 5653 5653 5653 5653 5653 5653 5653 5653 5653 5653 5654 5654 5655 5656 5656 5657 5657 5658 5658 5658 5659 5659 5659 5659 5659 5659 5659 5659 5659 5659 5659 5659 5659 5659 5659 5659 5659 5659 5659 5659 5659 5659 5659 5659 5659 5659 5659 5659 5659 5659 5659 5659 5659 5658 5658 5658 5658 5658 5658 5658 5658
5656 5656 5656 5655 5655 5655 5655 5654 5654 5654 5654 5653 5653 5652 5652 5652 5652 5651 5651 5651 5651 5651 5651 5651 5651 5651 5651 5651 5650 5650 5650 5650 5650 5651 5651 5652 5652 5653 5653 5654 5654 5655 5655 5656 5656 5656 5657 5657 5657 5657 5657 5657 5657 5657 5657 5657 5657 5657 5657 5657 5657 5657 5657 5657 5657 5657 5657 5657 5657 5657 5657 5657 5657 5657 5657 5657 5657 5656 5656 5656 5656 5656 5656 5656 5656 5656
5653 5653 5652 5652 5652 5652 5652 5651 5651 5650 5650 5650 5650 5649 5649 5649 5648 5648 5648 5648 5648 5648 5648 5648 5648 5648 5648 5648 5648 5648 5647 5647 5648 5648 5648 5649 5650 5650 5651 5651 5652 5653 5653 5653 5653 5654 5654 5654 5654 5654 5654 5654 5654 5654 5654 5654 5654 5654 5655 5655 5655 5655 5655 5655 5655 5655 5655 5655 5655 5655 5655 5655 5655 5654 5654 5654 5654 5654 5654 5654 5654 5653 5653 5653 5653 5653
5649 5649 5648 5648 5648 5648 5648 5648 5647 5647 5647 5647 5647 5646 5646 5646 5646 5645 5645 5645 5645 5645 5645 5645 5646 5646 5645 5645 5645 5645 5644 5645 5645 5646 5646 5647 5648 5648 5649 5649 5650 5650 5651 5651 5651 5651 5652 5652 5652 5652 5652 5652 5652 5652 5652 5652 5652 5652 5652 5653 5653 5653 5653 5653 5653 5653 5653 5653 5653 5652 5652 5652 5652 5652 5652 5652 5652 5652 5652 5651 5651 5651 5651 5651 5651 5651
5646 5645 5645 5645 5645 5645 5645 5645 5644 5644 5644 5643 5643 5643 5643 5643 5643 5642 5642 5642 5642 5643 5643 5643 5643 5643 5643 5643 5642 5642 5642 5642 5643 5643 5644 5645 5645 5646 5647 5647 5648 5648 5648 5648 5649 5649 5649 5649 5649 5649 5649 5650 5650 5650 5650 5650 5650 5650 5650 5650 5650 5650 5650 5650 5650 5650 5650 5650 5650 5650 5650 5650 5650 5650 5650 5649 5649 5649 5649 5649 5649 5649 5648 5648 5648 5648
5642 5642 5642 5642 5642 5641 5642 5642 5641 5641 5641 5640 5640 5640 5640 5639 5639 5639 5639 5639 5640 5640 5640 5640 5640 5640 5640 5640 5640 5640 5640 5640 5641 5642 5642 5643 5643 5644 5644 5645 5645 5646 5646 5646 5646 5646 5647 5647 5647 5647 5647 5647 5647 5648 5648 5648 5648 5648 5648 5648 5648 5648 5648 5648 5648 5648 5648 5648 5648 5648 5648 5648 5648 5647 5647 5647 5647 5647 5647 5646 5646 5646 5646 5646 5646 5646
5639 5639 5638 5638 5638 5638 5638 5638 5638 5638 5637 5637 5637 5637 5636 5636 5636 5637 5637 5637 5637 5637 5637 5637 5637 5637 5637 5637 5637 5638 5638 5638 5638 5639 5640 5641 5641 5642 5642 5643 5643 5643 5644 5644 5644 5644 5644 5644 5644 5644 5644 5645 5645 5645 5645 5645 5645 5645 5645 5645 5645 5645 5645 5645 5645 5645 5645 5645 5645 5645 5645 5645 5645 5645 5645 5644 5644 5644 5644 5644 5644 5643 5643 5643 5643 5643
5636 5636 5636 5635 5635 5635 5635 5635 5635 5634 5634 5633 5633 5633 5633 5633 5634 5634 5634 5634 5634 5634 5634 5634 5634 5634 5634 5635 5635 5635 5636 5636 5637 5637 5638 5639 5639 5639 5640 5640 5641 5641 5641 5641 5641 5642 5642 5642 5642 5642 5642 5643 5643 5643 5643 5643 5643 5643 5643 5643 5643 5643 5643 5643 5643 5643 5643 5643 5643 5643 5643 5642 5642 5642 5642 5642 5642 5642 5642 5641 5641 5641 5641 5641 5641 5640
5633 5633 5633 5633 5632 5632 5632 5632 5631 5631 5630 5630 5630 5631 5631 5631 5631 5631 5631 5632 5632 5632 5632 5632 5632 5632 5632 5633 5633 5633 5633 5634 5634 5635 5636 5637 5637 5637 5637 5638 5638 5639 5639 5639 5639 5639 5639 5639 5639 5640 5640 5640 5640 5640 5640 5640 5640 5640 5640 5640 5640 5640 5640 5640 5640 5640 5640 5640 5640 5640 5640 5640 5640 5639 5639 5639 5639 5639 5639 5639 5638 5638 5638 5638 5638 5638
5629 5630 5630 5630 5629 5629 5628 5628 5628 5628 5628 5628 5628 5628 5628 5628 5628 5628 5629 5629 5629 5629 5629 5629 5629 5629 5630 5630 5630 5631 5631 5632 5632 5633 5634 5634 5635 5635 5635 5635 5636 5636 5637 5637 5637 5637 5637 5637 5637 5638 5638 5638 5638 5638 5638 5638 5638 5638 5638 5638 5638 5638 5638 5638 5638 5638 5638 5638 5637 5637 5637 5637 5637 5637 5637 5637 5636 5636 5636 5636 5636 5636 5635 5635 5635 5635
5627 5627 5627 5626 5626 5625 5625 5625 5625 5624 5624 5625 5625 5625 5625 5626 5626 5626 5626 5626 5626 5626 5626 5626 5626 5627 5627 5628 5628 5628 5629 5629 5630 5631 5632 5632 5632 5633 5633 5633 5633 5634 5634 5634 5634 5634 5634 5635 5635 5635 5635 5635 5635 5635 5635 5635 5635 5635 5635 5635 5635 5635 5635 5635 5635 5635 5635 5635 5635 5634 5634 5634 5634 5634 5634 5634 5633 5633 5633 5633 5633 5633 5633 5633 5633 5632
5623 5623 5623 5623 5623 5622 5622 5622 5621 5621 5622 5622 5622 5622 5623 5623 5623 5623 5623 5623 5623 5623 5623 5623 5623 5624 5624 5625 5626 5626 5627 5628 5628 5628 5629 5629 5630 5630 5631 5631 5631 5632 5632 5632 5632 5632 5632 5632 5633 5633 5633 5633 5633 5633 5633 5633 5633 5633 5633 5633 5633 5633 5633 5633 5632 5632 5632 5632 5632 5632 5632 5631 5631 5631 5631 5631 5631 5631 5630 5630 5630 5630 5630 5630 5630 5629
5620 5620 5620 5620 5619 5619 5618 5618 5618 5618 5618 5619 5619 5619 5619 5619 5619 5619 5619 5619 5619 5620 5620 5621 5621 5622 5623 5623 5624 5624 5625 5625 5626 5626 5627 5627 5628 5628 5628 5628 5629 5629 5629 5629 5629 5630 5630 5630 5630 5630 5631 5630 5630 5630 5630 5630 5630 5630 5630 5630 5630 5630 5630 5630 5629 5629 5629 5629 5629 5629 5629 5628 5628 5628 5628 5628 5628 5628 5628 5628 5627 5627 5627 5627 5627 5627
5617 5617 5617 5617 5617 5616 5616 5616 5616 5616 5616 5616 5616 5616 5616 5616 5616 5616 5616 5617 5617 5618 5618 5619 5619 5620 5621 5622 5622 5623 5623 5623 5624 5624 5625 5625 5626 5626 5626 5626 5627 5627 5627 5627 5627 5627 5627 5628 5628 5628 5628 5628 5628 5628 5628 5628 5628 5628 5628 5627 5627 5627 5627 5627 5627 5626 5626 5626 5626 5626 5626 5626 5625 5625 5625 5625 5625 5625 5625 5624 5624 5624 5624 5624 5624 5624
5614 5614 5614 5614 5614 5613 5613 5613 5613 5613 5613 5613 5613 5613 5613 5613 5613 5613 5614 5614 5615 5616 5616 5617 5618 5618 5619 5620 5620 5621 5621 5621 5622 5622 5623 5623 5623 5624 5624 5624 5624 5624 5625 5625 5625 5625 5625 5625 5625 5625 5625 5625 5625 5625 5625 5625 5625 5625 5625 5624 5624 5624 5624 5624 5624 5623 5623 5623 5623 5623 5623 5623 5623 5622 5622 5622 5622 5622 5622 5622 5621 5621 5621 5621 5621 5621
5611 5611 5611 5611 5611 5611 5611 5611 5611 5611 5611 5611 5611 5611 5611 5611 5611 5612 5613 5613 5614 5614 5614 5615 5616 5616 5617 5618 5618 5618 5619 5619 5619 5620 5620 5621 5621 5621 5622 5622 5622 5622 5623 5623 5622 5622 5622 5623 5623 5623 5623 5623 5623 5623 5622 5622 5622 5622 5622 5622 5621 5621 5621 5621 5621 5620 5620 5620 5620 5620 5620 5619 5619 5619 5619 5619 5619 5619 5618 5618 5618 5618 5618 5618 5618 5618
5608 5608 5609 5609 5609 5609 5608 5608 5608 5608 5608 5608 5609 5609 5609 5609 5610 5610 5611 5612 5612 5613 5613 5613 5614 5614 5615 5615 5616 5616 5617 5617 5617 5618 5618 5618 5619 5619 5619 5619 5619 5620 5620 5620 5620 5620 5620 5620 5620 5620 5620 5620 5620 5619 5619 5619 5619 5619 5619 5618 5618 5618 5618 5618 5618 5618 5617 5617 5617 5617 5617 5616 5616 5616 5616 5616 5616 5616 5615 5615 5615 5615 5615 5615 5614 5614
5606 5606 5606 5606 5606 5606 5606 5606 5606 5606 5606 5607 5607 5607 5607 5608 5608 5608 5609 5610 5610 5610 5611 5611 5612 5612 5613 5613 5614 5614 5615 5615 5615 5615 5615 5616 5616 5617 5617 5617 5617 5618 5618 5618 5618 5618 5618 5617 5617 5617 5617 5617 5617 5617 5617 5616 5616 5616 5616 5616 5615 5615 5615 5615 5614 5614 5614 5614 5614 5613 5613 5613 5613 5613 5613 5613 5613 5612 5612 5612 5612 5612 5612 5611 5611 5611
5603 5603 5603 5603 5604 5604 5604 5604 5604 5604 5604 5604 5605 5605 5605 5605 5606 5607 5607 5608 5608 5609 5609 5609 5610 5610 5611 5611 5612 5612 5612 5613 5613 5613 5613 5613 5614 5615 5615 5615 5615 5615 5615 5615 5615 5615 5615 5615 5614 5614 5614 5614 5614 5614 5613 5613 5613 5613 5613 5613 5612 5612 5612 5612 5611 5611 5611 5611 5611 5610 5610 5610 5610 5610 5609 5609 5609 5609 5609 5609 5608 5608 5608 5608 5608 5608
5600 5600 5600 5601 5601 5601 5601 5602 5602 5602 5602 5602 5603 5603 5603 5603 5604 5605 5605 5606 5606 5607 5607 5608 5608 5608 5609 5609 5609 5610 5610 5610 5610 5610 5611 5611 5612 5612 5613 5613 5613 5612 5612 5612 5612 5612 5612 5612 5612 5612 5611 5611 5611 5611 5611 5610 5610 5610 5610 5609 5609 5609 5609 5608 5608 5608 5608 5608 5607 5607 5607 5607 5607 5606 5606 5606 5606 5606 5605 5605 5605 5605 5605 5604 5604 5604
5598 5598 5598 5598 5598 5599 5599 5599 5599 5600 5600 5600 5601 5601 5602 5602 5603 5603 5603 5604 5604 5605 5606 5606 5606 5607 5607 5607 5608 5608 5608 5608 5608 5608 5608 5609 5609 5610 5610 5610 5610 5610 5610 5609 5609 5609 5609 5609 5609 5609 5608 5608 5608 5608 5608 5607 5607 5607 5607 5606 5606 5606 5606 5605 5605 5604 5604 5604 5604 5604 5603 5603 5603 5603 5603 5603 5602 5602 5602 5602 5602 5601 5601 5601 5601 5601
5595 5596 5596 5596 5596 5597 5597 5597 5598 5598 5598 5599 5599 5599 5600 5600 5601 5601 5602 5602 5603 5603 5603 5604 5604 5605 5605 5605 5605 5606 5606 5606 5606 5606 5606 5606 5607 5607 5607 5607 5607 5607 5607 5607 5607 5607 5606 5606 5606 5606 5606 5605 5605 5605 5604 5604 5604 5604 5603 5603 5603 5603 5602 5602 5602 5601 5601 5601 5600 5600 5600 5600 5600 5599 5599 5599 5599 5599 5598 5598 5598 5598 5598 5597 5597 5597
5593 5594 5594 5594 5594 5595 5595 5595 5596 5596 5597 5597 5598 5598 5598 5599 5599 5599 5600 5600 5601 5601 5601 5602 5603 5603 5603 5603 5603 5603 5604 5603 5603 5604 5604 5604 5604 5604 5604 5604 5604 5604 5604 5604 5604 5604 5603 5603 5603 5603 5603 5603 5602 5602 5602 5601 5601 5600 5600 5600 5599 5599 5599 5598 5598 5598 5597 5597 5597 5597 5596 5596 5596 5596 5595 5595 5595 5595 5595 5595 5594 5594 5594 5594 5593 5593
5592 5592 5592 5593 5593 5593 5593 5594 5594 5595 5595 5595 5596 5596 5597 5597 5597 5598 5598 5598 5599 5599 5599 5600 5600 5600 5601 5601 5601 5602 5602 5602 5601 5601 5601 5601 5601 5602 5602 5602 5602 5602 5601 5601 5601 5601 5600 5600 5600 5600 5599 5599 5599 5599 5598 5598 5598 5597 5597 5596 5596 5595 5595 5595 5594 5594 5593 5593 5593 5593 5593 5592 5592 5592 5591 5591 5591 5591 5591 5591 5590 5590 5590 5590 5590 5589
5590 5591 5591 5591 5591 5592 5592 5592 5593 5593 5593 5594 5594 5594 5595 5595 5595 5596 5596 5597 5597 5597 5597 5598 5598 5598 5598 5599 5599 5599 5599 5599 5599 5599 5599 5599 5599 5599 5599 5599 5599 5599 5598 5598 5598 5598 5597 5597 5597 5597 5597 5596 5596 5596 5596 5595 5594 5593 5593 5593 5592 5592 5591 5591 5591 5590 5589 5589 5589 5589 5588 5588 5588 5588 5587 5587 5587 5587 5587 5586 5586 5586 5586 5586 5586 5585
5589 5589 5589 5589 5590 5590 5590 5591 5591 5591 5592 5592 5592 5593 5593 5593 5593 5594 5594 5594 5595 5595 5595 5595 5596 5596 5596 5597 5597 5597 5597 5597 5597 5597 5597 5596 5596 5596 5596 5596 5596 5596 5596 5595 5595 5595 5594 5594 5593 5593 5593 5593 5592 5592 5592 5592 5591 5590 5590 5589 5589 5588 5588 5587 5587 5586 5586 5585 5585 5585 5584 5584 5584 5583 5583 5583 5583 5583 5582 5582 5582 5582 5582 5582 5581 5581
5587 5587 5588 5588 5588 5588 5588 5589 5589 5589 5590 5590 5590 5591 5591 5591 5591 5592 5592 5592 5593 5593 5593 5593 5593 5594 5594 5594 5594 5595 5594 5594 5594 5594 5594 5594 5593 5593 5593 5593 5593 5593 5593 5592 5592 5592 5591 5590 5590 5590 5589 5589 5589 5589 5588 5588 5588 5587 5586 5586 5585 5584 5584 5583 5583 5582 5582 5581 5581 5580 5580 5580 5579 5579 5578 5578 5578 5578 5578 5578 5578 5578 5577 5577 5577 5577
5585 5585 5586 5586 5586 5586 5587 5587 5587 5588 5588 5588 5588 5588 5588 5589 5589 5589 5590 5590 5590 5591 5591 5591 5592 5592 5592 5592 5593 5592 5592 5592 5592 5592 5591 5591 5591 5590 5590 5590 5590 5589 5589 5589 5588 5588 5588 5587 5587 5586 5586 5585 5585 5585 5585 5584 5584 5583 5583 5582 5582 5581 5580 5580 5579 5578 5578 5577 5576 5576 5576 5575 5575 5574 5574 5574 5574 5573 5573 5573 5573 5573 5573 5573 5573 5573
5583 5583 5583 5584 5584 5584 5585 5585 5585 5585 5585 5586 5586 5586 5586 5587 5587 5587 5588 5588 5588 5589 5589 5589 5589 5590 5590 5590 5590 5590 5590 5589 5589 5589 5588 5588 5588 5588 5587 5587 5587 5586 5586 5585 5585 5585 5584 5584 5583 5583 5582 5582 5581 5581 5580 5580 5580 5579 5579 5578 5578 5578 5577 5576 5575 5574 5573 5573 5572 5572 5571 5571 5570 5570 5569 5569 5569 5569 5569 5569 5568 5568 5568 5568 5568 5568
5581 5581 5582 5582 5582 5582 5582 5583 5583 5583 5583 5583 5584 5584 5584 5584 5585 5585 5586 5586 5586 5587 5587 5587 5587 5587 5587 5587 5587 5587 5587 5587 5586 5586 5586 5585 5585 5585 5584 5584 5583 5583 5583 5582 5582 5581 5581 5580 5580 5579 5579 5578 5577 5577 5576 5576 5575 5575 5575 5574 5574 5573 5573 5572 5571 5570 5569 5568 5568 5567 5567 5566 5566 5565 5565 5565 5564 5564 5564 5564 5564 5564 5564 5564 5564 5564
5579 5579 5579 5579 5580 5580 5580 5580 5581 5581 5581 5581 5582 5582 5583 5583 5583 5583 5584 5584 5584 5584 5584 5584 5584 5584 5584 5584 5584 5584 5584 5583 5583 5583 5583 5582 5582 5581 5581 5580 5580 5579 5579 5578 5578 5578 5577 5577 5576 5575 5575 5574 5573 5573 5572 5571 5571 5571 5570 5570 5570 5569 5568 5568 5567 5566 5565 5564 5563 5563 5562 5562 5561 5561 5560 5560 5560 5560 5560 5560 5560 5559 5559 5559 5559 5559
5577 5577 5577 5578 5578 5578 5578 5578 5579 5579 5579 5580 5580 5580 5581 5581 5581 5582 5582 5582 5582 5582 5582 5582 5582 5582 5582 5582 5582 5581 5581 5581 5580 5580 5579 5579 5578 5578 5578 5577 5577 5576 5575 5575 5574 5574 5573 5573 5572 5572 5571 5570 5569 5568 5568 5567 5567 5566 5566 5566 5565 5565 5564 5563 5563 5563 5561 5560 5559 5558 5558 5557 5557 5556 5556 5556 5556 5556 5556 5555 5555 5555 5555 5555 5555 5555
5575 5575 5575 5576 5576 5576 5576 5577 5577 5578 5578 5578 5579 5579 5579 5579 5579 5580 5580 5580 5580 5580 5580 5579 5579 5579 5579 5579 5579 5579 5578 5578 5577 5577 5576 5576 5575 5575 5574 5573 5573 5573 5572 5571 5571 5570 5570 5569 5568 5568 5567 5566 5565 5565 5564 5563 5563 5562 5562 5562 5561 5561 5560 5559 5559 5558 5557 5556 5555 5554 5553 5553 5552 5552 5552 5551 5551 5551 5551 5551 5551 5551 5551 5551 5551 5551
5573 5573 5573 5574 5574 5574 5575 5575 5576 5576 5576 5577 5577 5577 5577 5577 5577 5577 5578 5578 5578 5577 5577 5577 5577 5577 5577 5577 5577 5576 5575 5575 5574 5574 5573 5573 5572 5572 5571 5570 5569 5569 5568 5568 5567 5566 5566 5565 5565 5564 5563 5563 5562 5561 5560 5559 5559 5558 5558 5557 5557 5556 5555 5555 5554 5554 5553 5552 5551 5550 5550 5549 5548 5548 5547 5547 5547 5547 5547 5547 5547 5547 5547 5547 5547 5547
5571 5572 5572 5572 5573 5573 5573 5574 5574 5574 5574 5575 5575 5575 5575 5575 5575 5575 5575 5575 5575 5575 5574 5574 5574 5574 5573 5573 5573 5573 5573 5572 5571 5571 5570 5569 5569 5568 5568 5567 5566 5565 5565 5564 5563 5563 5562 5562 5561 5560 5560 5559 5558 5558 5557 5556 5555 5554 5554 5553 5553 5552 5551 5551 5550 5550 5549 5548 5548 5547 5546 5545 5544 5544 5544 5543 5543 5543 5543 5543 5543 5543 5543 5543 5543 5543
5569 5570 5570 5570 5571 5571 5571 5572 5572 5572 5572 5572 5572 5572 5572 5572 5572 5572 5572 5572 5572 5572 5572 5571 5571 5571 5570 5570 5570 5569 5569 5569 5568 5568 5567 5566 5565 5565 5564 5563 5563 5562 5562 5561 5560 5559 5559 5558 5557 5557 5556 5555 5555 5554 5553 5553 5552 5551 5550 5550 5549 5548 5548 5547 5547 5546 5545 5544 5543 5543 5542 5541 5541 5540 5540 5540 5539 5539 5539 5539 5539 5539 5539 5538 5538 5538
5568 5568 5568 5568 5569 5569 5569 5569 5569 5570 5570 5570 5570 5570 5569 5569 5569 5569 5569 5569 5569 5569 5568 5568 5568 5568 5567 5567 5567 5566 5566 5565 5565 5565 5564 5563 5563 5562 5561 5560 5560 5559 5558 5558 5557 5556 5555 5555 5554 5553 5553 5552 5551 5550 5550 5549 5548 5548 5547 5546 5545 5545 5544 5543 5543 5542 5541 5540 5539 5539 5538 5538 5537 5537 5536 5536 5536 5536 5535 5535 5535 5535 5535 5534 5534 5534
5565 5566 5566 5566 5566 5567 5567 5567 5567 5567 5568 5568 5568 5567 5567 5567 5567 5567 5566 5566 5566 5566 5565 5565 5565 5564 5564 5564 5564 5563 5563 5563 5562 5562 5561 5561 5560 5559 5558 5558 5557 5556 5555 5555 5554 5553 5552 5551 5550 5550 5549 5548 5548 5547 5546 5546 5545 5544 5543 5542 5541 5541 5540 5539 5538 5538 5537 5536 5535 5535 5534 5533 5533 5533 5533 5532 5532 5532 5532 5531 5531 5531 5531 5530 5530 5530
5563 5563 5563 5564 5564 5564 5564 5565 5565 5565 5565 5565 5565 5565 5564 5564 5564 5563 5563 5563 5563 5563 5562 5562 5562 5561 5561 5561 5561 5560 5560 5560 5559 5559 5558 5558 5557 5556 5556 5555 5554 5553 5553 5552 5551 5550 5549 5548 5547 5546 5546 5545 5544 5543 5543 5542 5541 5540 5539 5538 5537 5537 5536 5535 5534 5534 5533 5532 5531 5531 5530 5530 5529 5529 5528 5528 5528 5528 5527 5527 5527 5527 5527 5526 5526 5526
5561 5561 5561 5562 5562 5562 5562 5562 5562 5563 5563 5563 5562 5562 5562 5561 5561 5561 5560 5560 5560 5559 5559 5559 5559 5558 5558 5558 5558 5558 5557 5557 5556 5556 5556 5555 5554 5554 5553 5552 5552 5551 5550 5549 5548 5547 5546 5545 5544 5543 5542 5542 5541 5540 5539 5538 5537 5536 5535 5534 5533 5533 5532 5531 5530 5530 5529 5528 5527 5527 5526 5526 5525 5525 5524 5524 5524 5523 5523 5523 5523 5523 5523 5522 5522 5522